Tiempo cada hora Aadorf

Hoy, 24 Junio, Jueves

Tiempo Temperatura Precipitaciones Viento Presión Humedad
00:00 +15°C° 0.9 mm 1 mps 710 mmHg 98%
01:00 +15°C° 0 mm 1 mps 711 mmHg 98%
02:00 +15°C° 0 mm 1 mps 710 mmHg 97%
03:00 +13°C° 0 mm 0 mps 710 mmHg 97%
04:00 +13°C° 0 mm 0 mps 710 mmHg 97%
05:00 +13°C° 0 mm 0 mps 710 mmHg 96%
06:00 +14°C° 0 mm 0 mps 710 mmHg 94%
07:00 +15°C° 0 mm 0 mps 710 mmHg 93%
08:00 +16°C° 0.1 mm 0 mps 710 mmHg 85%
09:00 +18°C° 0.1 mm 0 mps 710 mmHg 77%
10:00 +21°C° 0.1 mm 1 mps 710 mmHg 69%
11:00 +22°C° 0.3 mm 1 mps 710 mmHg 69%
12:00 +22°C° 0.3 mm 1 mps 710 mmHg 68%
13:00 +23°C° 0.3 mm 1 mps 710 mmHg 68%
14:00 +22°C° 1.7 mm 1 mps 710 mmHg 75%
15:00 +20°C° 1.7 mm 2 mps 709 mmHg 82%
16:00 +19°C° 1.7 mm 2 mps 709 mmHg 89%
17:00 +17°C° 5.5 mm 3 mps 710 mmHg 91%
18:00 +16°C° 5.5 mm 3 mps 711 mmHg 94%
19:00 +13°C° 5.5 mm 4 mps 711 mmHg 96%
20:00 +13°C° 0.4 mm 3 mps 711 mmHg 96%
21:00 +13°C° 0.4 mm 2 mps 712 mmHg 95%
22:00 +13°C° 0.4 mm 1 mps 712 mmHg 95%
23:00 +13°C° 0 mm 1 mps 712 mmHg 95%

Mañana, 25 Junio, Viernes

Tiempo Temperatura Precipitaciones Viento Presión Humedad
00:00 +12°C° 0 mm 1 mps 712 mmHg 94%
01:00 +12°C° 0 mm 1 mps 711 mmHg 94%
02:00 +12°C° 0 mm 1 mps 711 mmHg 94%
03:00 +11°C° 0 mm 1 mps 711 mmHg 94%
04:00 +11°C° 0 mm 1 mps 711 mmHg 95%
05:00 +12°C° 0 mm 1 mps 711 mmHg 93%
06:00 +13°C° 0 mm 1 mps 711 mmHg 92%
07:00 +14°C° 0 mm 1 mps 711 mmHg 91%
08:00 +15°C° 0.1 mm 1 mps 712 mmHg 87%
09:00 +15°C° 0.1 mm 1 mps 712 mmHg 84%
10:00 +16°C° 0.1 mm 1 mps 712 mmHg 80%
11:00 +18°C° 0.3 mm 1 mps 711 mmHg 76%
12:00 +19°C° 0.3 mm 2 mps 711 mmHg 71%
13:00 +20°C° 0.3 mm 2 mps 711 mmHg 67%
14:00 +20°C° 0.4 mm 2 mps 711 mmHg 68%
15:00 +21°C° 0.4 mm 1 mps 711 mmHg 70%
16:00 +21°C° 0.4 mm 1 mps 711 mmHg 72%
17:00 +20°C° 0.6 mm 1 mps 711 mmHg 78%
18:00 +19°C° 0.6 mm 1 mps 711 mmHg 83%
19:00 +16°C° 0.6 mm 0 mps 711 mmHg 88%
20:00 +16°C° 0.1 mm 1 mps 711 mmHg 90%
21:00 +14°C° 0.1 mm 1 mps 711 mmHg 92%
22:00 +13°C° 0.1 mm 1 mps 711 mmHg 93%
23:00 +13°C° 0 mm 1 mps 711 mmHg 94%

Pasado mañana, 26 Junio, Sábado

Tiempo Temperatura Precipitaciones Viento Presión Humedad
00:00 +12°C° 0 mm 1 mps 711 mmHg 94%
01:00 +12°C° 0 mm 1 mps 711 mmHg 95%
02:00 +11°C° 0 mm 1 mps 711 mmHg 95%
03:00 +11°C° 0 mm 1 mps 711 mmHg 95%
04:00 +11°C° 0 mm 1 mps 711 mmHg 95%
05:00 +11°C° 0 mm 0 mps 711 mmHg 94%
06:00 +12°C° 0 mm 0 mps 711 mmHg 93%
07:00 +13°C° 0 mm 0 mps 711 mmHg 92%
08:00 +16°C° 0 mm 1 mps 711 mmHg 83%
09:00 +19°C° 0 mm 1 mps 711 mmHg 75%
10:00 +21°C° 0 mm 1 mps 711 mmHg 66%
11:00 +21°C° 0 mm 2 mps 711 mmHg 62%
12:00 +23°C° 0 mm 2 mps 710 mmHg 58%
13:00 +24°C° 0 mm 2 mps 710 mmHg 54%
14:00 +24°C° 0 mm 2 mps 710 mmHg 53%
15:00 +25°C° 0 mm 2 mps 710 mmHg 52%
16:00 +25°C° 0 mm 2 mps 710 mmHg 51%
17:00 +24°C° 0 mm 2 mps 710 mmHg 60%
18:00 +23°C° 0 mm 1 mps 710 mmHg 69%
19:00 +22°C° 0 mm 1 mps 709 mmHg 78%
20:00 +20°C° 0 mm 1 mps 709 mmHg 83%
21:00 +19°C° 0 mm 1 mps 709 mmHg 88%
22:00 +16°C° 0 mm 1 mps 709 mmHg 92%
23:00 +16°C° 0 mm 1 mps 709 mmHg 92%

27 Junio, Domingo

Tiempo Temperatura Precipitaciones Viento Presión Humedad
00:00 +15°C° 0 mm 1 mps 709 mmHg 93%
01:00 +15°C° 0 mm 1 mps 709 mmHg 93%
02:00 +14°C° 0 mm 1 mps 709 mmHg 93%
03:00 +14°C° 0 mm 1 mps 708 mmHg 93%
04:00 +14°C° 0 mm 1 mps 708 mmHg 93%
05:00 +15°C° 0 mm 1 mps 708 mmHg 89%
06:00 +16°C° 0 mm 1 mps 708 mmHg 86%
07:00 +18°C° 0 mm 1 mps 709 mmHg 83%
08:00 +20°C° 0 mm 1 mps 709 mmHg 75%
09:00 +22°C° 0 mm 1 mps 709 mmHg 68%
10:00 +24°C° 0 mm 1 mps 709 mmHg 61%
11:00 +26°C° 0 mm 1 mps 708 mmHg 57%
12:00 +27°C° 0 mm 2 mps 708 mmHg 53%
13:00 +28°C° 0 mm 2 mps 708 mmHg 50%
14:00 +28°C° 0 mm 2 mps 708 mmHg 50%
15:00 +28°C° 0 mm 2 mps 708 mmHg 50%
16:00 +29°C° 0 mm 3 mps 708 mmHg 51%
17:00 +27°C° 0.1 mm 2 mps 708 mmHg 60%
18:00 +25°C° 0.1 mm 2 mps 707 mmHg 69%
19:00 +24°C° 0.1 mm 2 mps 707 mmHg 79%
20:00 +21°C° 1.4 mm 2 mps 707 mmHg 84%
21:00 +20°C° 1.4 mm 2 mps 707 mmHg 90%
22:00 +19°C° 1.4 mm 1 mps 707 mmHg 95%
23:00 +19°C° 0 mm 1 mps 707 mmHg 95%

28 Junio, Lunes

Tiempo Temperatura Precipitaciones Viento Presión Humedad
00:00 +18°C° 0 mm 1 mps 707 mmHg 94%
01:00 +16°C° 0 mm 1 mps 707 mmHg 94%
02:00 +15°C° 0 mm 0 mps 707 mmHg 94%
03:00 +15°C° 0 mm 0 mps 706 mmHg 94%
04:00 +15°C° 0 mm 0 mps 706 mmHg 94%
05:00 +15°C° 0 mm 0 mps 706 mmHg 93%
06:00 +16°C° 0 mm 0 mps 707 mmHg 92%
07:00 +17°C° 0 mm 0 mps 707 mmHg 91%
08:00 +19°C° 0 mm 0 mps 707 mmHg 84%
09:00 +22°C° 0 mm 1 mps 707 mmHg 77%
10:00 +24°C° 0 mm 1 mps 707 mmHg 70%
11:00 +25°C° 0 mm 1 mps 707 mmHg 65%
12:00 +27°C° 0 mm 1 mps 707 mmHg 60%
13:00 +28°C° 0 mm 2 mps 706 mmHg 55%
14:00 +25°C° 0.3 mm 3 mps 707 mmHg 64%
15:00 +22°C° 0.3 mm 5 mps 707 mmHg 74%
16:00 +19°C° 0.3 mm 6 mps 708 mmHg 84%
17:00 +16°C° 0.6 mm 5 mps 708 mmHg 86%
18:00 +15°C° 0.6 mm 4 mps 709 mmHg 89%
19:00 +15°C° 0.6 mm 2 mps 709 mmHg 91%
20:00 +15°C° 0 mm 2 mps 709 mmHg 91%
21:00 +14°C° 0 mm 1 mps 709 mmHg 91%
22:00 +14°C° 0 mm 1 mps 709 mmHg 92%
23:00 +14°C° 0 mm 1 mps 709 mmHg 91%

29 Junio, Martes

Tiempo Temperatura Precipitaciones Viento Presión Humedad
00:00 +13°C° 0 mm 0 mps 709 mmHg 91%
01:00 +13°C° 0 mm 0 mps 709 mmHg 91%
02:00 +13°C° 0 mm 0 mps 709 mmHg 92%
03:00 +13°C° 0 mm 0 mps 709 mmHg 92%
04:00 +13°C° 0 mm 0 mps 709 mmHg 92%
05:00 +13°C° 0 mm 0 mps 709 mmHg 92%
06:00 +14°C° 0 mm 0 mps 709 mmHg 92%
07:00 +14°C° 0 mm 0 mps 709 mmHg 91%
08:00 +15°C° 0 mm 0 mps 709 mmHg 84%
09:00 +16°C° 0 mm 0 mps 709 mmHg 77%
10:00 +18°C° 0 mm 0 mps 709 mmHg 70%
11:00 +21°C° 0 mm 1 mps 709 mmHg 66%
12:00 +22°C° 0 mm 1 mps 709 mmHg 62%
13:00 +23°C° 0 mm 1 mps 709 mmHg 58%
14:00 +22°C° 0.2 mm 1 mps 709 mmHg 65%
15:00 +20°C° 0.2 mm 2 mps 709 mmHg 72%
16:00 +19°C° 0.2 mm 2 mps 709 mmHg 79%
17:00 +18°C° 0.2 mm 2 mps 709 mmHg 82%
18:00 +19°C° 0.2 mm 1 mps 709 mmHg 84%
19:00 +18°C° 0.2 mm 1 mps 709 mmHg 86%
20:00 +16°C° 0 mm 1 mps 710 mmHg 88%
21:00 +15°C° 0 mm 1 mps 710 mmHg 90%
22:00 +13°C° 0 mm 0 mps 710 mmHg 93%
23:00 +14°C° 0 mm 1 mps 710 mmHg 93%
Mostrar más

Necesitamos Su Consentimiento

Meteoprog y nuestros Proveedores de Servicios pueden almacenar y acceder a sus datos personales como cookies, identificadores de dispositivo u otras tecnologías similares de su dispositivo y procesar dichos datos para personalizar contenido y anuncios, además de ofrecer funciones de redes sociales y analizar el tráfico.

  • Almacenar y/o acceder a información en su dispositivo

    Se puede almacenar o acceder a cookies, identificadores de dispositivo u otra información de su dispositivo para los fines anteriormente indicados.

  • Anuncios y contenido personalizados, medición de anuncios y contenido, percepciones del público, y desarrollo de productos

    Los anuncios y el contenido pueden personalizarse en base a su perfil. Se pueden añadir más datos para personalizar mejor los anuncios y contenidos. Se puede medir el rendimiento de los anuncios y contenidos. Se puede obtener la percepción sobre el público que ha visto los anuncios y contenidos. Dichos datos pueden usarse para desarrollar o mejorar la experiencia del usuario, sistemas y software.

Al hacer clic en ‘Estoy De Acuerdo’ usted permitirá el uso de las cookies, identificadores de dispositivo, balizas web u otras tecnologías similares indicadas. Su configuración puede cambiarse desde el navegador de su dispositivo.

Para ciertos fines, los intereses legítimos pueden ser considerados por encima del consentimiento. Puede leer más sobre ello en nuestra Política de Privacidad y Cookies.